Location: ????????
(55.6189°N, 38.3031°E)
Time: 22:25:28
(UTC+00:00)

Cosmos 1461 - Pass Details

Date: 15 November 2019
Orbit: 522 x 645 km, 65.0° (Epoch: 13 December)

Event Time Altitude Azimuth Distance (km) Brightness Sun altitude
Exits shadow 04:15:48 - 294° (WNW) 1,926 4.9 -6.4°
Reaches altitude 10° 04:16:15 10° 298° (WNW) 1,782 4.7 -6.4°
Maximum altitude 04:19:27 23° 351° (N) 1,186 4.2 -5.9°
Drops below altitude 10° 04:22:43 10° 45° (NE) 1,821 5.8 -5.5°
Sets 04:25:20 0° 60° (ENE) 2,736 6.9 -5.2°
